User: anonymous   Login
Location: Unspecified
(0.0000°N, 0.0000°E)
Time: 05:00:14
(UTC+00:00)
Language:

CANX 3A (UNIBRITE) - Orbit

View from above orbital plane
View from above orbital plane
View from above satellite
View from above satellite

Ground track
Ground track

The orbit data is extracted from the following two-line orbital elements,

1 39092U 13009G   16238.79019130 -.00000001  00000-0  15226-4 0  9998
2 39092  98.5751  79.7895 0010572  96.0878 264.1512 14.34861570183112
Epoch (UTC): 25 August 2016 18:57:52
Eccentricity: 0.0010572
inclination: 98.5751°
perigee height: 768 km
apogee height: 783 km
right ascension of ascending node: 79.7895°
argument of perigee: 96.0878°
revolutions per day: 14.34861570
mean anomaly at epoch: 264.1512°
orbit number at epoch: 18311

The dashed part of the orbit path shows where the satellite is in the earth's shadow,  

DLR